Time,TemperatureF,DewpointF,PressureIn,WindDirection,WindDirectionDegrees,WindSpeedMPH,WindSpeedGustMPH,Humidity,HourlyPrecipIn,Conditions,Clouds,dailyrainin,SoftwareType,DateUTC
2013-07-18 00:01:00,79.7,71.1,30.04,WSW,252,0.0,0.0,75,0.00,,---,0.00,VWS V14.00,2013-07-18 05:01:00,
2013-07-18 00:06:00,79.6,71.0,30.04,WSW,252,0.0,0.0,75,0.00,,---,0.00,VWS V14.00,2013-07-18 05:06:00,
2013-07-18 00:12:00,79.4,70.8,30.04,North,0,0.0,0.0,75,0.00,,---,0.00,VWS V14.00,2013-07-18 05:12:00,
2013-07-18 00:17:00,79.3,70.7,30.04,WSW,243,0.0,2.0,75,0.00,,---,0.00,VWS V14.00,2013-07-18 05:17:00,
2013-07-18 00:22:00,79.3,70.7,30.04,WSW,243,0.0,0.0,75,0.00,,---,0.00,VWS V14.00,2013-07-18 05:22:00,
2013-07-18 00:27:00,79.1,70.5,30.04,SSW,202,1.0,3.0,75,0.00,,---,0.00,VWS V14.00,2013-07-18 05:27:00,
2013-07-18 00:32:00,79.0,70.4,30.04,SW,216,0.0,2.0,75,0.00,,---,0.00,VWS V14.00,2013-07-18 05:32:00,
2013-07-18 00:37:00,78.9,70.7,30.04,SW,231,1.0,2.0,76,0.00,,---,0.00,VWS V14.00,2013-07-18 05:37:00,
2013-07-18 00:42:00,78.8,70.6,30.04,SSW,202,1.0,4.0,76,0.00,,---,0.00,VWS V14.00,2013-07-18 05:42:00,
2013-07-18 00:47:00,78.7,70.9,30.04,SW,221,1.0,4.0,77,0.00,,---,0.00,VWS V14.00,2013-07-18 05:47:00,
2013-07-18 00:52:00,78.5,70.7,30.04,SW,235,4.0,5.0,77,0.00,,---,0.00,VWS V14.00,2013-07-18 05:52:00,
2013-07-18 00:57:00,78.4,71.0,30.04,SW,233,2.0,3.0,78,0.00,,---,0.00,VWS V14.00,2013-07-18 05:57:00,
2013-07-18 01:02:00,78.3,70.9,30.04,SW,224,3.0,4.0,78,0.00,,---,0.00,VWS V14.00,2013-07-18 06:02:00,
2013-07-18 01:07:00,78.2,70.8,30.04,WSW,252,2.0,2.0,78,0.00,,---,0.00,VWS V14.00,2013-07-18 06:07:00,
2013-07-18 01:12:00,78.2,70.8,30.04,SW,229,0.0,2.0,78,0.00,,---,0.00,VWS V14.00,2013-07-18 06:12:00,
2013-07-18 01:17:00,78.0,71.0,30.04,SSW,210,1.0,2.0,79,0.00,,---,0.00,VWS V14.00,2013-07-18 06:17:00,
2013-07-18 01:22:00,77.9,70.9,30.04,SSW,209,3.0,4.0,79,0.00,,---,0.00,VWS V14.00,2013-07-18 06:22:00,
2013-07-18 01:27:00,77.7,70.7,30.04,SW,228,1.0,5.0,79,0.00,,---,0.00,VWS V14.00,2013-07-18 06:27:00,
2013-07-18 01:32:00,77.6,70.9,30.04,SW,232,2.0,3.0,80,0.00,,---,0.00,VWS V14.00,2013-07-18 06:32:00,
2013-07-18 01:37:00,77.7,71.0,30.03,SW,227,2.0,3.0,80,0.00,,---,0.00,VWS V14.00,2013-07-18 06:37:00,
2013-07-18 01:42:00,77.7,71.0,30.03,WSW,243,1.0,2.0,80,0.00,,---,0.00,VWS V14.00,2013-07-18 06:42:00,
2013-07-18 01:47:00,77.7,71.4,30.03,SW,217,1.0,4.0,81,0.00,,---,0.00,VWS V14.00,2013-07-18 06:47:00,
2013-07-18 01:52:00,77.7,71.4,30.03,SW,225,3.0,4.0,81,0.00,,---,0.00,VWS V14.00,2013-07-18 06:52:00,
2013-07-18 01:57:00,77.7,71.4,30.03,WSW,237,3.0,6.0,81,0.00,,---,0.00,VWS V14.00,2013-07-18 06:57:00,
2013-07-18 02:02:00,77.6,71.7,30.03,SW,229,2.0,4.0,82,0.00,,---,0.00,VWS V14.00,2013-07-18 07:02:00,
2013-07-18 02:07:00,77.6,71.7,30.03,SW,232,0.0,3.0,82,0.00,,---,0.00,VWS V14.00,2013-07-18 07:07:00,
2013-07-18 02:12:00,77.5,71.9,30.03,WSW,244,4.0,4.0,83,0.00,,---,0.00,VWS V14.00,2013-07-18 07:12:00,
2013-07-18 02:17:00,77.4,71.8,30.03,WSW,238,3.0,5.0,83,0.00,,---,0.00,VWS V14.00,2013-07-18 07:17:00,
2013-07-18 02:22:00,77.3,71.7,30.02,WSW,248,0.0,5.0,83,0.00,,---,0.00,VWS V14.00,2013-07-18 07:22:00,
2013-07-18 02:27:00,77.2,72.0,30.02,West,267,3.0,6.0,84,0.00,,---,0.00,VWS V14.00,2013-07-18 07:27:00,
2013-07-18 02:32:00,77.2,72.0,30.02,SW,228,4.0,5.0,84,0.00,,---,0.00,VWS V14.00,2013-07-18 07:32:00,
2013-07-18 02:37:00,77.1,71.9,30.02,SW,229,1.0,5.0,84,0.00,,---,0.00,VWS V14.00,2013-07-18 07:37:00,
2013-07-18 02:42:00,77.0,72.2,30.02,West,272,0.0,3.0,85,0.00,,---,0.00,VWS V14.00,2013-07-18 07:42:00,
2013-07-18 02:47:00,77.0,72.2,30.02,SW,231,2.0,3.0,85,0.00,,---,0.00,VWS V14.00,2013-07-18 07:47:00,
2013-07-18 02:52:00,77.0,72.2,30.03,WSW,245,1.0,5.0,85,0.00,,---,0.00,VWS V14.00,2013-07-18 07:52:00,
2013-07-18 02:57:00,77.0,72.2,30.03,WSW,253,1.0,4.0,85,0.00,,---,0.00,VWS V14.00,2013-07-18 07:57:00,
2013-07-18 03:02:00,77.0,72.2,30.03,SW,225,3.0,5.0,85,0.00,,---,0.00,VWS V14.00,2013-07-18 08:02:00,
2013-07-18 03:07:00,76.9,72.4,30.02,WSW,242,2.0,3.0,86,0.00,,---,0.00,VWS V14.00,2013-07-18 08:07:00,
2013-07-18 03:12:00,76.9,72.4,30.02,WSW,239,0.0,0.0,86,0.00,,---,0.00,VWS V14.00,2013-07-18 08:12:00,
2013-07-18 03:17:00,76.8,72.3,30.02,WSW,242,1.0,4.0,86,0.00,,---,0.00,VWS V14.00,2013-07-18 08:17:00,
2013-07-18 03:22:00,76.7,72.2,30.02,WSW,241,0.0,1.0,86,0.00,,---,0.00,VWS V14.00,2013-07-18 08:22:00,
2013-07-18 03:27:00,76.6,72.4,30.02,WSW,252,2.0,3.0,87,0.00,,---,0.00,VWS V14.00,2013-07-18 08:27:00,
2013-07-18 03:32:00,76.4,72.2,30.02,WSW,243,0.0,2.0,87,0.00,,---,0.00,VWS V14.00,2013-07-18 08:32:00,
2013-07-18 03:37:00,76.3,72.2,30.02,WSW,239,2.0,4.0,87,0.00,,---,0.00,VWS V14.00,2013-07-18 08:37:00,
2013-07-18 03:42:00,76.2,72.1,30.02,WSW,246,0.0,4.0,87,0.00,,---,0.00,VWS V14.00,2013-07-18 08:42:00,
2013-07-18 03:47:00,76.2,72.1,30.02,West,260,0.0,5.0,87,0.00,,---,0.00,VWS V14.00,2013-07-18 08:47:00,
2013-07-18 03:52:00,76.2,72.4,30.02,West,270,1.0,4.0,88,0.00,,---,0.00,VWS V14.00,2013-07-18 08:52:00,
2013-07-18 03:57:00,76.3,72.5,30.02,WNW,294,2.0,4.0,88,0.00,,---,0.00,VWS V14.00,2013-07-18 08:57:00,
2013-07-18 04:02:00,76.3,72.5,30.02,WSW,247,0.0,5.0,88,0.00,,---,0.00,VWS V14.00,2013-07-18 09:02:00,
2013-07-18 04:07:00,76.3,72.5,30.02,West,279,3.0,6.0,88,0.00,,---,0.00,VWS V14.00,2013-07-18 09:07:00,
2013-07-18 04:12:00,76.4,72.6,30.02,WSW,250,5.0,6.0,88,0.00,,---,0.00,VWS V14.00,2013-07-18 09:12:00,
2013-07-18 04:17:00,76.4,72.6,30.02,WSW,242,0.0,3.0,88,0.00,,---,0.00,VWS V14.00,2013-07-18 09:17:00,
2013-07-18 04:22:00,76.4,72.6,30.01,WNW,287,4.0,5.0,88,0.00,,---,0.00,VWS V14.00,2013-07-18 09:22:00,
2013-07-18 04:27:00,76.4,72.6,30.01,West,271,3.0,4.0,88,0.00,,---,0.00,VWS V14.00,2013-07-18 09:27:00,
2013-07-18 04:32:00,76.3,72.5,30.01,West,272,1.0,2.0,88,0.00,,---,0.00,VWS V14.00,2013-07-18 09:32:00,
2013-07-18 04:37:00,76.2,72.4,30.01,West,259,1.0,4.0,88,0.00,,---,0.00,VWS V14.00,2013-07-18 09:37:00,
2013-07-18 04:42:00,76.2,72.4,30.01,NW,304,1.0,3.0,88,0.00,,---,0.00,VWS V14.00,2013-07-18 09:42:00,
2013-07-18 04:47:00,76.1,72.3,30.01,West,265,2.0,3.0,88,0.00,,---,0.00,VWS V14.00,2013-07-18 09:47:00,
2013-07-18 04:52:00,76.1,72.6,30.01,West,268,1.0,5.0,89,0.00,,---,0.00,VWS V14.00,2013-07-18 09:52:00,
2013-07-18 04:57:00,76.1,72.6,30.01,West,270,1.0,4.0,89,0.00,,---,0.00,VWS V14.00,2013-07-18 09:57:00,
2013-07-18 05:02:00,76.1,72.6,30.01,WSW,254,1.0,5.0,89,0.00,,---,0.00,VWS V14.00,2013-07-18 10:02:00,
2013-07-18 05:07:00,76.1,72.6,30.01,WNW,288,1.0,2.0,89,0.00,,---,0.00,VWS V14.00,2013-07-18 10:07:00,
2013-07-18 05:12:00,76.1,72.6,30.01,West,266,2.0,4.0,89,0.00,,---,0.00,VWS V14.00,2013-07-18 10:12:00,
2013-07-18 05:17:00,76.1,72.3,30.01,WSW,254,2.0,3.0,88,0.00,,---,0.00,VWS V14.00,2013-07-18 10:17:00,
2013-07-18 05:22:00,76.0,72.5,30.01,WSW,248,0.0,0.0,89,0.00,,---,0.00,VWS V14.00,2013-07-18 10:22:00,
2013-07-18 05:27:00,76.0,72.5,30.01,West,277,0.0,2.0,89,0.00,,---,0.00,VWS V14.00,2013-07-18 10:27:00,
2013-07-18 05:32:00,76.0,72.5,30.01,West,280,0.0,0.0,89,0.00,,---,0.00,VWS V14.00,2013-07-18 10:32:00,
2013-07-18 05:37:00,75.9,72.4,30.00,West,261,0.0,1.0,89,0.00,,---,0.00,VWS V14.00,2013-07-18 10:37:00,
2013-07-18 05:42:00,75.9,72.4,30.00,West,264,0.0,1.0,89,0.00,,---,0.00,VWS V14.00,2013-07-18 10:42:00,
2013-07-18 05:47:00,75.8,72.3,30.00,WSW,257,0.0,1.0,89,0.00,,---,0.00,VWS V14.00,2013-07-18 10:47:00,
2013-07-18 05:52:00,75.9,72.4,30.00,WSW,238,1.0,3.0,89,0.00,,---,0.00,VWS V14.00,2013-07-18 10:52:00,
2013-07-18 05:57:00,76.0,72.5,30.00,WSW,256,0.0,1.0,89,0.00,,---,0.00,VWS V14.00,2013-07-18 10:57:00,
2013-07-18 06:01:00,76.0,72.5,30.00,WSW,252,0.0,0.0,89,0.00,,---,0.00,VWS V14.00,2013-07-18 11:01:00,
2013-07-18 06:07:00,76.1,72.6,30.00,WSW,238,0.0,3.0,89,0.00,,---,0.00,VWS V14.00,2013-07-18 11:07:00,
2013-07-18 06:11:00,76.2,72.4,30.00,WSW,252,0.0,2.0,88,0.00,,---,0.00,VWS V14.00,2013-07-18 11:11:00,
2013-07-18 06:16:00,76.3,72.5,30.00,West,275,1.0,3.0,88,0.00,,---,0.00,VWS V14.00,2013-07-18 11:16:00,
2013-07-18 06:21:00,76.4,72.6,30.00,WSW,252,0.0,3.0,88,0.00,,---,0.00,VWS V14.00,2013-07-18 11:21:00,
2013-07-18 06:26:00,76.6,72.8,30.00,WSW,258,0.0,1.0,88,0.00,,---,0.00,VWS V14.00,2013-07-18 11:26:00,
2013-07-18 06:31:00,76.8,72.6,30.00,West,265,2.0,3.0,87,0.00,,---,0.00,VWS V14.00,2013-07-18 11:31:00,
2013-07-18 06:36:00,77.0,72.8,30.00,WSW,241,0.0,3.0,87,0.00,,---,0.00,VWS V14.00,2013-07-18 11:36:00,
2013-07-18 06:41:00,77.3,73.1,30.00,West,269,0.0,3.0,87,0.00,,---,0.00,VWS V14.00,2013-07-18 11:41:00,
2013-07-18 06:46:00,77.5,73.0,30.00,WSW,240,3.0,4.0,86,0.00,,---,0.00,VWS V14.00,2013-07-18 11:46:00,
2013-07-18 06:51:00,77.8,73.3,29.99,SW,225,0.0,2.0,86,0.00,,---,0.00,VWS V14.00,2013-07-18 11:51:00,
2013-07-18 06:56:00,78.2,73.3,29.99,SW,234,2.0,4.0,85,0.00,,---,0.00,VWS V14.00,2013-07-18 11:56:00,
2013-07-18 07:01:00,78.5,73.3,29.99,WSW,242,3.0,5.0,84,0.00,,---,0.00,VWS V14.00,2013-07-18 12:01:00,
2013-07-18 07:06:00,78.9,73.3,29.99,SW,236,4.0,5.0,83,0.00,,---,0.00,VWS V14.00,2013-07-18 12:06:00,
2013-07-18 07:11:00,79.2,73.6,29.99,SW,232,1.0,3.0,83,0.00,,---,0.00,VWS V14.00,2013-07-18 12:11:00,
2013-07-18 07:16:00,79.5,73.5,29.99,WSW,240,3.0,4.0,82,0.00,,---,0.00,VWS V14.00,2013-07-18 12:16:00,
2013-07-18 07:21:00,79.8,73.8,29.99,WSW,244,1.0,4.0,82,0.00,,---,0.00,VWS V14.00,2013-07-18 12:21:00,
2013-07-18 07:26:00,80.1,73.8,29.99,SW,226,1.0,5.0,81,0.00,,---,0.00,VWS V14.00,2013-07-18 12:26:00,
2013-07-18 07:31:00,80.2,73.5,29.99,West,263,2.0,5.0,80,0.00,,---,0.00,VWS V14.00,2013-07-18 12:31:00,
2013-07-18 07:36:00,80.5,73.8,29.99,WNW,298,2.0,4.0,80,0.00,,---,0.00,VWS V14.00,2013-07-18 12:36:00,
2013-07-18 07:41:00,80.7,73.6,29.99,West,280,4.0,6.0,79,0.00,,---,0.00,VWS V14.00,2013-07-18 12:41:00,
2013-07-18 07:46:00,80.9,73.8,29.99,WSW,258,3.0,6.0,79,0.00,,---,0.00,VWS V14.00,2013-07-18 12:46:00,
2013-07-18 07:51:00,81.2,73.7,29.99,West,269,2.0,3.0,78,0.00,,---,0.00,VWS V14.00,2013-07-18 12:51:00,
2013-07-18 07:56:00,81.6,73.7,29.99,West,261,1.0,4.0,77,0.00,,---,0.00,VWS V14.00,2013-07-18 12:56:00,
2013-07-18 08:01:00,82.0,73.7,29.99,West,279,4.0,6.0,76,0.00,,---,0.00,VWS V14.00,2013-07-18 13:01:00,
2013-07-18 08:06:00,82.2,74.3,29.99,West,271,0.0,2.0,77,0.00,,---,0.00,VWS V14.00,2013-07-18 13:06:00,
2013-07-18 08:11:00,82.6,73.9,29.99,WNW,284,1.0,4.0,75,0.00,,---,0.00,VWS V14.00,2013-07-18 13:11:00,
2013-07-18 08:16:00,83.0,74.3,29.99,WSW,256,1.0,3.0,75,0.00,,---,0.00,VWS V14.00,2013-07-18 13:16:00,
2013-07-18 08:21:00,83.4,73.8,29.99,SW,222,6.0,9.0,73,0.00,,---,0.00,VWS V14.00,2013-07-18 13:21:00,
2013-07-18 08:26:00,83.6,74.0,29.99,WNW,288,4.0,5.0,73,0.00,,---,0.00,VWS V14.00,2013-07-18 13:26:00,
2013-07-18 08:31:00,83.7,73.7,29.99,SW,233,5.0,5.0,72,0.00,,---,0.00,VWS V14.00,2013-07-18 13:31:00,
2013-07-18 08:36:00,84.1,74.5,29.98,WNW,291,3.0,3.0,73,0.00,,---,0.00,VWS V14.00,2013-07-18 13:36:00,
2013-07-18 08:41:00,84.2,74.2,29.98,WNW,285,1.0,4.0,72,0.00,,---,0.00,VWS V14.00,2013-07-18 13:41:00,
2013-07-18 08:46:00,84.5,73.7,29.98,WNW,290,3.0,7.0,70,0.00,,---,0.00,VWS V14.00,2013-07-18 13:46:00,
2013-07-18 08:51:00,84.6,74.2,29.98,WNW,288,3.0,6.0,71,0.00,,---,0.00,VWS V14.00,2013-07-18 13:51:00,
2013-07-18 08:56:00,84.8,74.4,29.98,NW,313,2.0,6.0,71,0.00,,---,0.00,VWS V14.00,2013-07-18 13:56:00,
2013-07-18 09:01:00,84.8,73.9,29.98,WNW,288,3.0,5.0,70,0.00,,---,0.00,VWS V14.00,2013-07-18 14:01:00,
2013-07-18 09:06:00,85.4,74.9,29.98,SW,229,3.0,5.0,71,0.00,,---,0.00,VWS V14.00,2013-07-18 14:06:00,
2013-07-18 09:11:00,85.6,74.3,29.98,West,281,3.0,8.0,69,0.00,,---,0.00,VWS V14.00,2013-07-18 14:11:00,
2013-07-18 09:16:00,85.7,74.4,29.98,West,260,2.0,7.0,69,0.00,,---,0.00,VWS V14.00,2013-07-18 14:16:00,
2013-07-18 09:21:00,85.8,74.0,29.98,NW,306,5.0,8.0,68,0.00,,---,0.00,VWS V14.00,2013-07-18 14:21:00,
2013-07-18 09:26:00,86.1,73.9,29.98,WNW,290,3.0,8.0,67,0.00,,---,0.00,VWS V14.00,2013-07-18 14:26:00,
2013-07-18 09:31:00,86.2,74.4,29.98,WSW,250,1.0,5.0,68,0.00,,---,0.00,VWS V14.00,2013-07-18 14:31:00,
2013-07-18 09:36:00,86.7,74.4,29.98,WSW,254,5.0,7.0,67,0.00,,---,0.00,VWS V14.00,2013-07-18 14:36:00,
2013-07-18 09:41:00,87.1,74.4,29.98,WSW,257,3.0,6.0,66,0.00,,---,0.00,VWS V14.00,2013-07-18 14:41:00,
2013-07-18 09:46:00,87.4,73.7,29.98,West,269,2.0,5.0,64,0.00,,---,0.00,VWS V14.00,2013-07-18 14:46:00,
2013-07-18 09:51:00,87.8,73.6,29.98,West,268,7.0,8.0,63,0.00,,---,0.00,VWS V14.00,2013-07-18 14:51:00,
2013-07-18 09:56:00,87.7,74.0,29.98,West,274,7.0,9.0,64,0.00,,---,0.00,VWS V14.00,2013-07-18 14:56:00,
2013-07-18 10:01:00,87.7,74.0,29.98,NW,304,6.0,7.0,64,0.00,,---,0.00,VWS V14.00,2013-07-18 15:01:00,
2013-07-18 10:06:00,88.0,74.3,29.98,SSW,194,0.0,5.0,64,0.00,,---,0.00,VWS V14.00,2013-07-18 15:06:00,
2013-07-18 10:11:00,88.4,74.2,29.98,SW,217,3.0,5.0,63,0.00,,---,0.00,VWS V14.00,2013-07-18 15:11:00,
2013-07-18 10:16:00,88.4,73.7,29.98,WSW,257,2.0,9.0,62,0.00,,---,0.00,VWS V14.00,2013-07-18 15:16:00,
2013-07-18 10:21:00,88.4,73.2,29.98,West,274,3.0,7.0,61,0.00,,---,0.00,VWS V14.00,2013-07-18 15:21:00,
2013-07-18 10:26:00,88.4,73.2,29.98,WNW,282,3.0,7.0,61,0.00,,---,0.00,VWS V14.00,2013-07-18 15:26:00,
2013-07-18 10:31:00,88.3,73.2,29.98,WNW,288,1.0,5.0,61,0.00,,---,0.00,VWS V14.00,2013-07-18 15:31:00,
2013-07-18 10:36:00,88.6,73.4,29.97,SW,227,3.0,10.0,61,0.00,,---,0.00,VWS V14.00,2013-07-18 15:36:00,
2013-07-18 10:41:00,88.7,72.5,29.97,SW,236,9.0,9.0,59,0.00,,---,0.00,VWS V14.00,2013-07-18 15:41:00,
2013-07-18 10:46:00,88.7,73.0,29.97,SW,221,3.0,8.0,60,0.00,,---,0.00,VWS V14.00,2013-07-18 15:46:00,
2013-07-18 10:51:00,88.8,73.1,29.97,NNW,331,5.0,8.0,60,0.00,,---,0.00,VWS V14.00,2013-07-18 15:51:00,
2013-07-18 10:56:00,88.7,72.5,29.97,West,278,3.0,9.0,59,0.00,,---,0.00,VWS V14.00,2013-07-18 15:56:00,
2013-07-18 11:01:00,89.2,73.0,29.97,WNW,292,6.0,9.0,59,0.00,,---,0.00,VWS V14.00,2013-07-18 16:01:00,
2013-07-18 11:06:00,89.2,72.5,29.96,West,274,3.0,11.0,58,0.00,,---,0.00,VWS V14.00,2013-07-18 16:06:00,
2013-07-18 11:11:00,89.2,72.5,29.96,NW,304,1.0,10.0,58,0.00,,---,0.00,VWS V14.00,2013-07-18 16:11:00,
2013-07-18 11:16:00,89.3,72.6,29.96,WSW,240,8.0,11.0,58,0.00,,---,0.00,VWS V14.00,2013-07-18 16:16:00,
2013-07-18 11:21:00,89.8,72.6,29.96,WNW,285,8.0,10.0,57,0.00,,---,0.00,VWS V14.00,2013-07-18 16:21:00,
2013-07-18 11:26:00,90.1,72.3,29.96,WSW,258,4.0,7.0,56,0.00,,---,0.00,VWS V14.00,2013-07-18 16:26:00,
2013-07-18 11:31:00,89.9,71.0,29.96,WSW,247,6.0,9.0,54,0.00,,---,0.00,VWS V14.00,2013-07-18 16:31:00,
2013-07-18 11:36:00,89.9,71.6,29.96,WSW,244,5.0,8.0,55,0.00,,---,0.00,VWS V14.00,2013-07-18 16:36:00,
2013-07-18 11:41:00,89.9,71.6,29.96,West,278,2.0,6.0,55,0.00,,---,0.00,VWS V14.00,2013-07-18 16:41:00,
2013-07-18 11:46:00,90.5,72.7,29.96,NW,322,3.0,7.0,56,0.00,,---,0.00,VWS V14.00,2013-07-18 16:46:00,
2013-07-18 11:51:00,89.3,72.1,29.96,WNW,298,1.0,9.0,57,0.00,,---,0.00,VWS V14.00,2013-07-18 16:51:00,
2013-07-18 11:56:00,88.5,72.3,29.96,West,270,5.0,9.0,59,0.00,,---,0.00,VWS V14.00,2013-07-18 16:56:00,
2013-07-18 12:01:00,88.4,72.8,29.96,NW,304,4.0,7.0,60,0.00,,---,0.00,VWS V14.00,2013-07-18 17:01:00,
2013-07-18 12:06:00,89.3,73.1,29.95,NW,309,6.0,7.0,59,0.00,,---,0.00,VWS V14.00,2013-07-18 17:06:00,
2013-07-18 12:11:00,89.7,73.0,29.95,West,262,3.0,6.0,58,0.00,,---,0.00,VWS V14.00,2013-07-18 17:11:00,
2013-07-18 12:16:00,89.5,72.8,29.95,West,267,1.0,9.0,58,0.00,,---,0.00,VWS V14.00,2013-07-18 17:16:00,
2013-07-18 12:21:00,89.8,73.1,29.95,SW,225,5.0,9.0,58,0.00,,---,0.00,VWS V14.00,2013-07-18 17:21:00,
2013-07-18 12:26:00,90.5,72.7,29.95,WSW,253,3.0,6.0,56,0.00,,---,0.00,VWS V14.00,2013-07-18 17:26:00,
2013-07-18 12:31:00,91.2,72.2,29.95,WNW,300,5.0,10.0,54,0.00,,---,0.00,VWS V14.00,2013-07-18 17:31:00,
2013-07-18 12:36:00,91.1,72.2,29.95,SW,236,8.0,8.0,54,0.00,,---,0.00,VWS V14.00,2013-07-18 17:36:00,
2013-07-18 12:41:00,90.7,72.3,29.95,WSW,241,5.0,9.0,55,0.00,,---,0.00,VWS V14.00,2013-07-18 17:41:00,
2013-07-18 12:46:00,91.0,72.6,29.95,WNW,298,3.0,10.0,55,0.00,,---,0.00,VWS V14.00,2013-07-18 17:46:00,
2013-07-18 12:51:00,90.8,72.4,29.94,West,272,1.0,12.0,55,0.00,,---,0.00,VWS V14.00,2013-07-18 17:51:00,
2013-07-18 12:56:00,90.2,72.4,29.94,West,280,2.0,9.0,56,0.00,,---,0.00,VWS V14.00,2013-07-18 17:56:00,
2013-07-18 13:01:00,90.2,72.9,29.94,West,268,4.0,6.0,57,0.00,,---,0.00,VWS V14.00,2013-07-18 18:01:00,
2013-07-18 13:06:00,90.1,72.8,29.93,West,268,6.0,7.0,57,0.00,,---,0.00,VWS V14.00,2013-07-18 18:06:00,
2013-07-18 13:11:00,90.2,72.9,29.93,SSW,203,3.0,8.0,57,0.00,,---,0.00,VWS V14.00,2013-07-18 18:11:00,
2013-07-18 13:16:00,90.9,73.0,29.93,SSW,202,5.0,8.0,56,0.00,,---,0.00,VWS V14.00,2013-07-18 18:16:00,
2013-07-18 13:21:00,91.1,71.6,29.92,South,173,4.0,11.0,53,0.00,,---,0.00,VWS V14.00,2013-07-18 18:21:00,
2013-07-18 13:26:00,91.3,71.8,29.92,SSW,207,7.0,7.0,53,0.00,,---,0.00,VWS V14.00,2013-07-18 18:26:00,
2013-07-18 13:31:00,91.6,72.1,29.92,SW,225,10.0,10.0,53,0.00,,---,0.00,VWS V14.00,2013-07-18 18:31:00,
2013-07-18 13:36:00,91.6,72.1,29.91,SSW,209,3.0,9.0,53,0.00,,---,0.00,VWS V14.00,2013-07-18 18:36:00,
2013-07-18 13:41:00,91.9,70.6,29.91,SW,225,8.0,12.0,50,0.00,,---,0.00,VWS V14.00,2013-07-18 18:41:00,
2013-07-18 13:46:00,91.6,70.3,29.91,WSW,248,5.0,10.0,50,0.00,,---,0.00,VWS V14.00,2013-07-18 18:46:00,
2013-07-18 13:51:00,91.1,72.2,29.91,West,265,3.0,13.0,54,0.00,,---,0.00,VWS V14.00,2013-07-18 18:51:00,
2013-07-18 13:56:00,91.2,72.2,29.91,SW,231,4.0,11.0,54,0.00,,---,0.00,VWS V14.00,2013-07-18 18:56:00,
2013-07-18 14:01:00,91.1,72.2,29.91,WSW,237,7.0,10.0,54,0.00,,---,0.00,VWS V14.00,2013-07-18 19:01:00,
2013-07-18 14:06:00,92.0,72.4,29.90,SSE,159,3.0,8.0,53,0.00,,---,0.00,VWS V14.00,2013-07-18 19:06:00,
2013-07-18 14:11:00,92.0,72.4,29.90,WNW,294,6.0,10.0,53,0.00,,---,0.00,VWS V14.00,2013-07-18 19:11:00,
2013-07-18 14:16:00,92.0,72.4,29.90,SW,218,5.0,9.0,53,0.00,,---,0.00,VWS V14.00,2013-07-18 19:16:00,
2013-07-18 14:21:00,92.1,73.1,29.89,SW,217,8.0,8.0,54,0.00,,---,0.00,VWS V14.00,2013-07-18 19:21:00,
2013-07-18 14:26:00,92.1,73.1,29.89,WSW,242,16.0,16.0,54,0.00,,---,0.00,VWS V14.00,2013-07-18 19:26:00,
2013-07-18 14:31:00,92.0,72.4,29.89,West,261,7.0,14.0,53,0.00,,---,0.00,VWS V14.00,2013-07-18 19:31:00,
2013-07-18 14:36:00,91.6,73.2,29.89,South,176,3.0,11.0,55,0.00,,---,0.00,VWS V14.00,2013-07-18 19:36:00,
2013-07-18 14:41:00,90.9,73.0,29.89,WNW,283,6.0,8.0,56,0.00,,---,0.00,VWS V14.00,2013-07-18 19:41:00,
2013-07-18 14:46:00,91.0,73.1,29.89,SSW,196,1.0,6.0,56,0.00,,---,0.00,VWS V14.00,2013-07-18 19:46:00,
2013-07-18 14:51:00,91.9,72.9,29.88,SSW,213,8.0,12.0,54,0.00,,---,0.00,VWS V14.00,2013-07-18 19:51:00,
2013-07-18 14:56:00,91.9,72.3,29.88,SW,232,6.0,11.0,53,0.00,,---,0.00,VWS V14.00,2013-07-18 19:56:00,
2013-07-18 15:01:00,91.6,72.6,29.88,WSW,254,5.0,10.0,54,0.00,,---,0.00,VWS V14.00,2013-07-18 20:01:00,
2013-07-18 15:06:00,91.6,73.7,29.88,WNW,298,1.0,10.0,56,0.00,,---,0.00,VWS V14.00,2013-07-18 20:06:00,
2013-07-18 15:11:00,91.8,72.2,29.88,WSW,237,5.0,14.0,53,0.00,,---,0.00,VWS V14.00,2013-07-18 20:11:00,
2013-07-18 15:16:00,92.2,72.6,29.88,WSW,252,5.0,13.0,53,0.00,,---,0.00,VWS V14.00,2013-07-18 20:16:00,
2013-07-18 15:21:00,91.9,72.3,29.87,SW,224,12.0,16.0,53,0.00,,---,0.00,VWS V14.00,2013-07-18 20:21:00,
2013-07-18 15:26:00,91.5,73.1,29.87,SSW,205,4.0,9.0,55,0.00,,---,0.00,VWS V14.00,2013-07-18 20:26:00,
2013-07-18 15:31:00,91.9,72.9,29.87,SW,217,7.0,9.0,54,0.00,,---,0.00,VWS V14.00,2013-07-18 20:31:00,
2013-07-18 15:36:00,91.7,72.7,29.87,SW,229,13.0,16.0,54,0.00,,---,0.00,VWS V14.00,2013-07-18 20:36:00,
2013-07-18 15:41:00,91.8,72.8,29.87,SW,218,5.0,14.0,54,0.00,,---,0.00,VWS V14.00,2013-07-18 20:41:00,
2013-07-18 15:46:00,91.9,72.9,29.87,South,179,8.0,10.0,54,0.00,,---,0.00,VWS V14.00,2013-07-18 20:46:00,
2013-07-18 15:51:00,91.7,72.7,29.86,WSW,243,6.0,9.0,54,0.00,,---,0.00,VWS V14.00,2013-07-18 20:51:00,
2013-07-18 15:56:00,92.0,73.0,29.86,SSW,198,4.0,11.0,54,0.00,,---,0.00,VWS V14.00,2013-07-18 20:56:00,
2013-07-18 16:01:00,92.6,73.5,29.86,SSW,210,3.0,7.0,54,0.00,,---,0.00,VWS V14.00,2013-07-18 21:01:00,
2013-07-18 16:06:00,92.7,73.6,29.85,SSW,209,5.0,10.0,54,0.00,,---,0.00,VWS V14.00,2013-07-18 21:06:00,
2013-07-18 16:11:00,91.9,72.9,29.85,SSW,192,1.0,9.0,54,0.00,,---,0.00,VWS V14.00,2013-07-18 21:11:00,
2013-07-18 16:16:00,91.6,72.1,29.85,SW,223,7.0,16.0,53,0.00,,---,0.00,VWS V14.00,2013-07-18 21:16:00,
2013-07-18 16:21:00,91.5,72.0,29.85,South,182,3.0,16.0,53,0.00,,---,0.00,VWS V14.00,2013-07-18 21:21:00,
2013-07-18 16:26:00,91.6,70.9,29.85,West,277,8.0,15.0,51,0.00,,---,0.00,VWS V14.00,2013-07-18 21:26:00,
2013-07-18 16:31:00,91.9,70.6,29.85,SW,221,3.0,8.0,50,0.00,,---,0.00,VWS V14.00,2013-07-18 21:31:00,
2013-07-18 16:36:00,92.2,70.3,29.84,SW,236,3.0,12.0,49,0.00,,---,0.00,VWS V14.00,2013-07-18 21:36:00,
2013-07-18 16:41:00,91.9,70.6,29.84,WSW,250,9.0,16.0,50,0.00,,---,0.00,VWS V14.00,2013-07-18 21:41:00,
2013-07-18 16:46:00,91.3,71.8,29.84,WSW,248,4.0,9.0,53,0.00,,---,0.00,VWS V14.00,2013-07-18 21:46:00,
2013-07-18 16:51:00,91.3,70.7,29.84,SW,217,7.0,9.0,51,0.00,,---,0.00,VWS V14.00,2013-07-18 21:51:00,
2013-07-18 16:56:00,91.6,71.5,29.84,SW,234,8.0,11.0,52,0.00,,---,0.00,VWS V14.00,2013-07-18 21:56:00,
2013-07-18 17:01:00,91.9,71.2,29.84,West,266,4.0,8.0,51,0.00,,---,0.00,VWS V14.00,2013-07-18 22:01:00,
2013-07-18 17:06:00,92.1,71.4,29.83,SW,218,3.0,10.0,51,0.00,,---,0.00,VWS V14.00,2013-07-18 22:06:00,
2013-07-18 17:11:00,92.1,72.0,29.83,West,261,4.0,10.0,52,0.00,,---,0.00,VWS V14.00,2013-07-18 22:11:00,
2013-07-18 17:16:00,92.2,70.9,29.83,SW,232,5.0,13.0,50,0.00,,---,0.00,VWS V14.00,2013-07-18 22:16:00,
2013-07-18 17:21:00,92.1,71.4,29.83,West,265,7.0,8.0,51,0.00,,---,0.00,VWS V14.00,2013-07-18 22:21:00,
2013-07-18 17:26:00,92.1,71.4,29.83,WSW,249,10.0,13.0,51,0.00,,---,0.00,VWS V14.00,2013-07-18 22:26:00,
2013-07-18 17:31:00,91.7,71.6,29.83,SW,226,8.0,11.0,52,0.00,,---,0.00,VWS V14.00,2013-07-18 22:31:00,
2013-07-18 17:36:00,91.4,71.9,29.82,WSW,239,4.0,10.0,53,0.00,,---,0.00,VWS V14.00,2013-07-18 22:36:00,
2013-07-18 17:41:00,91.5,72.0,29.82,SW,217,4.0,5.0,53,0.00,,---,0.00,VWS V14.00,2013-07-18 22:41:00,
2013-07-18 17:46:00,91.3,71.8,29.82,SW,223,7.0,9.0,53,0.00,,---,0.00,VWS V14.00,2013-07-18 22:46:00,
2013-07-18 17:51:00,90.9,71.4,29.82,SW,232,5.0,14.0,53,0.00,,---,0.00,VWS V14.00,2013-07-18 22:51:00,
2013-07-18 17:56:00,90.8,71.9,29.82,SSW,201,5.0,9.0,54,0.00,,---,0.00,VWS V14.00,2013-07-18 22:56:00,
2013-07-18 18:01:00,90.8,71.9,29.82,West,269,8.0,11.0,54,0.00,,---,0.00,VWS V14.00,2013-07-18 23:01:00,
2013-07-18 18:06:00,90.7,71.8,29.81,West,261,4.0,14.0,54,0.00,,---,0.00,VWS V14.00,2013-07-18 23:06:00,
2013-07-18 18:11:00,90.7,72.3,29.81,SW,223,4.0,7.0,55,0.00,,---,0.00,VWS V14.00,2013-07-18 23:11:00,
2013-07-18 18:16:00,90.8,71.9,29.81,WSW,238,4.0,12.0,54,0.00,,---,0.00,VWS V14.00,2013-07-18 23:16:00,
2013-07-18 18:21:00,90.6,72.2,29.81,South,186,6.0,9.0,55,0.00,,---,0.00,VWS V14.00,2013-07-18 23:21:00,
2013-07-18 18:26:00,90.4,72.1,29.81,SW,221,5.0,9.0,55,0.00,,---,0.00,VWS V14.00,2013-07-18 23:26:00,
2013-07-18 18:31:00,90.1,71.8,29.81,SW,218,4.0,9.0,55,0.00,,---,0.00,VWS V14.00,2013-07-18 23:31:00,
2013-07-18 18:36:00,90.1,71.8,29.81,WSW,238,5.0,14.0,55,0.00,,---,0.00,VWS V14.00,2013-07-18 23:36:00,
2013-07-18 18:41:00,90.0,71.7,29.81,SW,223,6.0,15.0,55,0.00,,---,0.00,VWS V14.00,2013-07-18 23:41:00,
2013-07-18 18:46:00,89.7,71.9,29.81,West,261,0.0,14.0,56,0.00,,---,0.00,VWS V14.00,2013-07-18 23:46:00,
2013-07-18 18:51:00,89.6,71.8,29.81,SW,215,7.0,12.0,56,0.00,,---,0.00,VWS V14.00,2013-07-18 23:51:00,
2013-07-18 18:56:00,89.4,72.2,29.81,WSW,249,8.0,11.0,57,0.00,,---,0.00,VWS V14.00,2013-07-18 23:56:00,
2013-07-18 19:01:00,89.3,72.1,29.81,West,269,11.0,11.0,57,0.00,,---,0.00,VWS V14.00,2013-07-19 00:01:00,
2013-07-18 19:06:00,89.2,72.5,29.81,West,265,3.0,8.0,58,0.00,,---,0.00,VWS V14.00,2013-07-19 00:06:00,
2013-07-18 19:11:00,89.0,72.3,29.81,SSW,204,4.0,8.0,58,0.00,,---,0.00,VWS V14.00,2013-07-19 00:11:00,
2013-07-18 19:16:00,89.0,72.3,29.81,WNW,287,1.0,7.0,58,0.00,,---,0.00,VWS V14.00,2013-07-19 00:16:00,
2013-07-18 19:21:00,89.0,72.3,29.80,West,271,3.0,5.0,58,0.00,,---,0.00,VWS V14.00,2013-07-19 00:21:00,
2013-07-18 19:26:00,88.6,71.9,29.80,West,263,3.0,10.0,58,0.00,,---,0.00,VWS V14.00,2013-07-19 00:26:00,
2013-07-18 19:31:00,88.4,72.3,29.80,SW,223,7.0,9.0,59,0.00,,---,0.00,VWS V14.00,2013-07-19 00:31:00,
2013-07-18 19:36:00,88.3,72.2,29.80,SW,218,2.0,6.0,59,0.00,,---,0.00,VWS V14.00,2013-07-19 00:36:00,
2013-07-18 19:41:00,88.0,71.9,29.80,WSW,247,11.0,11.0,59,0.00,,---,0.00,VWS V14.00,2013-07-19 00:41:00,
2013-07-18 19:46:00,87.7,71.6,29.80,SW,227,10.0,15.0,59,0.00,,---,0.00,VWS V14.00,2013-07-19 00:46:00,
2013-07-18 19:51:00,87.5,71.9,29.79,WSW,242,10.0,10.0,60,0.00,,---,0.00,VWS V14.00,2013-07-19 00:51:00,
2013-07-18 19:56:00,87.2,71.6,29.79,WSW,242,9.0,9.0,60,0.00,,---,0.00,VWS V14.00,2013-07-19 00:56:00,
2013-07-18 20:01:00,87.0,71.4,29.79,WSW,246,1.0,6.0,60,0.00,,---,0.00,VWS V14.00,2013-07-19 01:01:00,
2013-07-18 20:06:00,86.9,71.8,29.79,SSW,193,3.0,8.0,61,0.00,,---,0.00,VWS V14.00,2013-07-19 01:06:00,
2013-07-18 20:11:00,86.7,71.7,29.79,SW,232,0.0,7.0,61,0.00,,---,0.00,VWS V14.00,2013-07-19 01:11:00,
2013-07-18 20:16:00,86.4,71.8,29.79,SW,229,4.0,10.0,62,0.00,,---,0.00,VWS V14.00,2013-07-19 01:16:00,
2013-07-18 20:21:00,86.2,71.7,29.79,SW,231,5.0,7.0,62,0.00,,---,0.00,VWS V14.00,2013-07-19 01:21:00,
2013-07-18 20:26:00,86.0,71.5,29.79,SSW,208,2.0,7.0,62,0.00,,---,0.00,VWS V14.00,2013-07-19 01:26:00,
2013-07-18 20:31:00,85.8,71.8,29.79,WSW,255,0.0,6.0,63,0.00,,---,0.00,VWS V14.00,2013-07-19 01:31:00,
2013-07-18 20:36:00,85.6,71.6,29.79,West,277,3.0,9.0,63,0.00,,---,0.00,VWS V14.00,2013-07-19 01:36:00,
2013-07-18 20:41:00,85.5,71.5,29.79,WSW,258,9.0,10.0,63,0.00,,---,0.00,VWS V14.00,2013-07-19 01:41:00,
2013-07-18 20:46:00,85.4,71.4,29.79,WSW,244,2.0,10.0,63,0.00,,---,0.00,VWS V14.00,2013-07-19 01:46:00,
2013-07-18 20:51:00,85.3,71.3,29.78,SW,234,7.0,7.0,63,0.00,,---,0.00,VWS V14.00,2013-07-19 01:51:00,
2013-07-18 20:56:00,85.2,71.7,29.78,SW,225,2.0,11.0,64,0.00,,---,0.00,VWS V14.00,2013-07-19 01:56:00,
2013-07-18 21:01:00,85.1,71.6,29.78,WSW,237,5.0,9.0,64,0.00,,---,0.00,VWS V14.00,2013-07-19 02:01:00,
2013-07-18 21:06:00,85.0,71.9,29.79,SW,223,4.0,9.0,65,0.00,,---,0.00,VWS V14.00,2013-07-19 02:06:00,
2013-07-18 21:11:00,84.8,71.7,29.79,WSW,251,3.0,9.0,65,0.00,,---,0.00,VWS V14.00,2013-07-19 02:11:00,
2013-07-18 21:16:00,84.5,71.9,29.79,SW,217,3.0,6.0,66,0.00,,---,0.00,VWS V14.00,2013-07-19 02:16:00,
2013-07-18 21:21:00,84.3,72.2,29.79,SW,233,5.0,5.0,67,0.00,,---,0.00,VWS V14.00,2013-07-19 02:21:00,
2013-07-18 21:26:00,84.1,72.4,29.79,SSW,213,2.0,7.0,68,0.00,,---,0.00,VWS V14.00,2013-07-19 02:26:00,
2013-07-18 21:31:00,84.0,72.3,29.79,SW,236,2.0,8.0,68,0.00,,---,0.00,VWS V14.00,2013-07-19 02:31:00,
2013-07-18 21:36:00,83.8,72.6,29.79,SW,216,7.0,7.0,69,0.00,,---,0.00,VWS V14.00,2013-07-19 02:36:00,
2013-07-18 21:41:00,83.7,72.5,29.79,South,187,4.0,7.0,69,0.00,,---,0.00,VWS V14.00,2013-07-19 02:41:00,
2013-07-18 21:46:00,83.7,72.5,29.79,SW,232,4.0,8.0,69,0.00,,---,0.00,VWS V14.00,2013-07-19 02:46:00,
2013-07-18 21:51:00,83.6,72.4,29.79,SW,234,4.0,5.0,69,0.00,,---,0.00,VWS V14.00,2013-07-19 02:51:00,
2013-07-18 21:56:00,83.5,72.3,29.79,SW,219,2.0,11.0,69,0.00,,---,0.00,VWS V14.00,2013-07-19 02:56:00,
2013-07-18 22:01:00,83.5,72.7,29.79,SW,214,6.0,9.0,70,0.00,,---,0.00,VWS V14.00,2013-07-19 03:01:00,
2013-07-18 22:06:00,83.4,72.6,29.79,WSW,249,6.0,9.0,70,0.00,,---,0.00,VWS V14.00,2013-07-19 03:06:00,
2013-07-18 22:11:00,83.4,72.6,29.79,West,273,6.0,6.0,70,0.00,,---,0.00,VWS V14.00,2013-07-19 03:11:00,
2013-07-18 22:16:00,83.4,72.6,29.79,SW,234,8.0,9.0,70,0.00,,---,0.00,VWS V14.00,2013-07-19 03:16:00,
2013-07-18 22:21:00,83.3,72.5,29.79,SW,225,6.0,8.0,70,0.00,,---,0.00,VWS V14.00,2013-07-19 03:21:00,
2013-07-18 22:26:00,83.2,72.8,29.79,SSW,200,2.0,6.0,71,0.00,,---,0.00,VWS V14.00,2013-07-19 03:26:00,
2013-07-18 22:31:00,83.1,72.7,29.79,South,182,8.0,8.0,71,0.00,,---,0.00,VWS V14.00,2013-07-19 03:31:00,
2013-07-18 22:36:00,83.0,72.6,29.79,SSW,211,2.0,3.0,71,0.00,,---,0.00,VWS V14.00,2013-07-19 03:36:00,
2013-07-18 22:41:00,82.8,72.4,29.79,SW,227,2.0,4.0,71,0.00,,---,0.00,VWS V14.00,2013-07-19 03:41:00,
2013-07-18 22:46:00,82.7,72.8,29.79,SSW,204,1.0,6.0,72,0.00,,---,0.00,VWS V14.00,2013-07-19 03:46:00,
2013-07-18 22:51:00,82.5,72.6,29.80,SW,235,6.0,8.0,72,0.00,,---,0.00,VWS V14.00,2013-07-19 03:51:00,
2013-07-18 22:56:00,82.5,72.6,29.80,WSW,240,9.0,11.0,72,0.00,,---,0.00,VWS V14.00,2013-07-19 03:56:00,
2013-07-18 23:01:00,82.4,72.5,29.80,SW,228,2.0,3.0,72,0.00,,---,0.00,VWS V14.00,2013-07-19 04:01:00,
2013-07-18 23:06:00,82.4,72.5,29.79,WNW,289,3.0,5.0,72,0.00,,---,0.00,VWS V14.00,2013-07-19 04:06:00,
2013-07-18 23:11:00,82.3,72.8,29.79,SSW,194,2.0,5.0,73,0.00,,---,0.00,VWS V14.00,2013-07-19 04:11:00,
2013-07-18 23:16:00,82.1,72.6,29.79,SSW,200,1.0,8.0,73,0.00,,---,0.00,VWS V14.00,2013-07-19 04:16:00,
2013-07-18 23:21:00,82.1,72.6,29.79,SW,236,1.0,5.0,73,0.00,,---,0.00,VWS V14.00,2013-07-19 04:21:00,
2013-07-18 23:26:00,82.0,72.5,29.79,SSW,203,2.0,8.0,73,0.00,,---,0.00,VWS V14.00,2013-07-19 04:26:00,
2013-07-18 23:31:00,81.8,72.3,29.79,SSW,213,3.0,7.0,73,0.00,,---,0.00,VWS V14.00,2013-07-19 04:31:00,
2013-07-18 23:36:00,81.6,72.5,29.78,SW,225,3.0,7.0,74,0.00,,---,0.00,VWS V14.00,2013-07-19 04:36:00,
2013-07-18 23:41:00,81.3,72.6,29.78,SW,224,7.0,10.0,75,0.00,,---,0.00,VWS V14.00,2013-07-19 04:41:00,
2013-07-18 23:46:00,81.1,72.4,29.78,SSW,202,1.0,8.0,75,0.00,,---,0.00,VWS V14.00,2013-07-19 04:46:00,
2013-07-18 23:51:00,81.0,72.7,29.78,SW,232,7.0,7.0,76,0.00,,---,0.00,VWS V14.00,2013-07-19 04:51:00,
2013-07-18 23:56:00,80.9,72.6,29.78,West,259,1.0,6.0,76,0.00,,---,0.00,VWS V14.00,2013-07-19 04:56:00,